Location: Cahas Mountain Overlook
(37.0833°N, 80.1000°W)
Time: 18:10:04
(UTC-05:00)

ISS - Pass Details

Date: 02 December 2021
Orbit: 413 x 422 km, 51.6° (Epoch: 28 January)

Event Time Altitude Azimuth Distance (km) Brightness Sun altitude
Rises 17:59:34 0° 322° (NW) 2,381 0.3 -11.1°
Reaches altitude 10° 18:03:38 10° 10° (N) 1,510 -1.2 -11.9°
Maximum altitude 18:04:00 10° 16° (NNE) 1,501 -1.3 -12.0°
Drops below altitude 10° 18:04:23 10° 23° (NNE) 1,509 -1.3 -12.0°
Enters shadow 18:04:24 10° 23° (NNE) 1,509 -1.3 -12.0°
